Alice Springs, Australia

3:21 PM ACST on October 23, 2019 (GMT +0930)
Alice Springs

Weather History for YBAS - August, 2019

Change the Weather History Date:

Friday, August 30, 2019

  Actual Average Record
Temperature  
Mean Temperature 53 °F -  
Max Temperature 72 °F 80 °F 95 °F (2013)
Min Temperature 34 °F 50 °F 36 °F (2017)
Degree Days  
Heating Degree Days 12    
Growing Degree Days 3 (Base 50)    
Moisture  
Dew Point 17 °F    
Average Humidity 21    
Maximum Humidity 41    
Minimum Humidity 5    
Precipitation  
Precipitation 0.00 in 0.01 in - ()
Sea Level Pressure  
Sea Level Pressure 30.15 in    
Wind  
Wind Speed 5 mph ()    
Max Wind Speed 13 mph    
Max Gust Speed 23 mph    
Visibility 6.2 miles    
Events      
Averages and records for this station are not official NWS values.
T = Trace of Precipitation, MM = Missing Value Source: Averaged Metar Reports

Daily Weather History Graph

Daily Weather History Graph

Search for Another Location

Airport or City:

Astronomy

Aug. 30, 2019 Rise Set
Actual Time 6:48 AM ACST 6:22 PM ACST
Civil Twilight 6:25 AM ACST 6:45 PM ACST
Nautical Twilight 5:58 AM ACST 7:11 PM ACST
Astronomical Twilight 5:32 AM ACST 7:38 PM ACST
Moon 6:38 AM ACST (8/30) 6:12 PM ACST (8/30)
Length of Visible Light 12h 20m
Length of Day
11h 34m
Waning Crescent, 0% of the Moon is Illuminated
Aug 30
Waning Crescent
Aug 30
New
Sep 6
First Quarter
Sep 14
Full
Sep 22
Last Quarter

Hourly Weather History & Observations

Time (ACST) Temp. Windchill Dew Point Humidity Pressure Visibility Wind Dir Wind Speed Gust Speed Precip Events Conditions
12:00 AM 44 °F - 14 °F 17% 30.22 in - Calm Calm - -   Clear
12:00 AM 44.6 °F - 14.0 °F 29% 30.24 in 6.2 mi Calm Calm - N/A   Unknown
12:30 AM 43 °F - 13 °F 17% 30.22 in - Calm Calm - -  
12:30 AM 42.8 °F - 12.2 °F 29% 30.24 in 6.2 mi Calm Calm - N/A   Unknown
1:00 AM 41.0 °F - 12.2 °F 31% 30.21 in 6.2 mi WSW 2.3 mph - N/A   Unknown
1:30 AM 39.2 °F 37.0 °F 12.2 °F 33% 30.21 in 6.2 mi SW 3.5 mph - N/A   Unknown
2:00 AM 39.2 °F 37.0 °F 12.2 °F 33% 30.21 in 6.2 mi West 3.5 mph - N/A   Unknown
2:30 AM 38 °F - 10 °F 19% 30.19 in - WNW 4.6 mph - -  
2:30 AM 37.4 °F 33.8 °F 10.4 °F 33% 30.21 in 6.2 mi WNW 4.6 mph - N/A   Unknown
3:00 AM 38 °F - 11 °F 20% 30.18 in - West 4.6 mph - -   Clear
3:30 AM 38 °F - 12 °F 21% 30.17 in - NW 4.6 mph - -  
3:30 AM 37.4 °F 33.8 °F 12.2 °F 36% 30.18 in 6.2 mi NW 4.6 mph - N/A   Unknown
4:30 AM 37.4 °F 32.8 °F 12.2 °F 36% 30.18 in 6.2 mi WNW 5.8 mph - N/A   Unknown
5:00 AM 37.4 °F 32.8 °F 12.2 °F 36% 30.18 in 6.2 mi West 5.8 mph - N/A   Unknown
5:30 AM 35 °F - 12 °F 24% 30.17 in - WNW 5.8 mph - -  
5:30 AM 35.6 °F 30.7 °F 12.2 °F 38% 30.18 in 6.2 mi WNW 5.8 mph - N/A   Unknown
6:00 AM 35 °F - 13 °F 26% 30.17 in - WNW 4.6 mph - -   Clear
6:30 AM 36 °F - 15 °F 28% 30.18 in - West 4.6 mph - -  
6:30 AM 35.6 °F 31.7 °F 14.0 °F 41% 30.18 in 6.2 mi West 4.6 mph - N/A   Unknown
7:00 AM 35.6 °F 31.7 °F 12.2 °F 38% 30.18 in 6.2 mi West 4.6 mph - N/A   Unknown
7:30 AM 39.2 °F 37.0 °F 14.0 °F 36% 30.18 in 6.2 mi WNW 3.5 mph - N/A   Unknown
8:30 AM 48.2 °F - 17.6 °F 30% 30.21 in - Calm Calm - N/A   Clear
9:00 AM 55.4 °F - 19.4 °F 25% 30.21 in - East 9.2 mph - N/A   Clear
9:30 AM 60 °F - 24 °F 14% 30.21 in - East 12.7 mph - -  
9:30 AM 59.0 °F - 23.0 °F 25% 30.21 in - East 12.7 mph - N/A   Clear
10:00 AM 60.8 °F - 24.8 °F 25% 30.21 in - East 12.7 mph - N/A   Clear
10:30 AM 62.6 °F - 23.0 °F 22% 30.21 in - ENE 12.7 mph - N/A   Clear
11:00 AM 62.6 °F - 23.0 °F 22% 30.21 in - East 12.7 mph - N/A   Clear
11:30 AM 64 °F - 23 °F 11% 30.20 in - ENE 10.4 mph - -  
11:30 AM 64.4 °F - 23.0 °F 21% 30.21 in - ENE 10.4 mph - N/A   Clear
12:00 PM 66 °F - 21 °F 9% 30.19 in - East 9.2 mph - -   Clear
12:00 PM 66.2 °F - 21.2 °F 18% 30.18 in - East 9.2 mph - N/A   Clear
12:30 PM 68 °F - 18 °F 7% 30.17 in - East 10.4 mph - -  
12:30 PM 68.0 °F - 17.6 °F 15% 30.18 in - East 10.4 mph 23.0 mph N/A   Clear
1:30 PM 69.8 °F - 17.6 °F 14% 30.15 in - East 11.5 mph - N/A   Clear
2:00 PM 71.6 °F - 19.4 °F 14% 30.12 in - East 11.5 mph - N/A   Clear
2:30 PM 71 °F - 18 °F 6% 30.09 in - ESE 11.5 mph - -  
2:30 PM 71.6 °F - 17.6 °F 13% 30.09 in - ESE 11.5 mph - N/A   Clear
3:00 PM 72 °F - 19 °F 6% 30.08 in - ESE 9.2 mph - -   Clear
3:00 PM 71.6 °F - 19.4 °F 14% 30.09 in - ESE 9.2 mph - N/A   Clear
3:30 PM 71 °F - 16 °F 5% 30.06 in - ESE 10.4 mph - -  
3:30 PM 71.6 °F - 15.8 °F 12% 30.06 in - ESE 10.4 mph - N/A   Clear
4:00 PM 71.6 °F - 15.8 °F 12% 30.06 in - East 10.4 mph - N/A   Clear
4:30 PM 71.6 °F - 17.6 °F 13% 30.06 in 6.2 mi ESE 6.9 mph - N/A   Unknown
5:30 PM 71 °F - 18 °F 6% 30.05 in - East 10.4 mph - -  
5:30 PM 71.6 °F - 17.6 °F 13% 30.06 in 6.2 mi East 10.4 mph - N/A   Unknown
6:00 PM 70 °F - 19 °F 7% 30.06 in - East 8.1 mph - -   Clear
6:00 PM 69.8 °F - 19.4 °F 15% 30.06 in 6.2 mi East 8.1 mph - N/A   Unknown
6:30 PM 66 °F - 17 °F 7% 30.07 in - ENE 6.9 mph - -  
6:30 PM 66.2 °F - 17.6 °F 15% 30.06 in 6.2 mi ENE 6.9 mph - N/A   Unknown
7:00 PM 64.4 °F - 17.6 °F 16% 30.09 in 6.2 mi ENE 6.9 mph - N/A   Unknown
7:30 PM 60.8 °F - 17.6 °F 19% 30.09 in 6.2 mi ENE 6.9 mph - N/A   Unknown
8:00 PM 59.0 °F - 19.4 °F 22% 30.09 in 6.2 mi ENE 6.9 mph - N/A   Unknown
8:30 PM 58 °F - 18 °F 11% 30.10 in - East 8.1 mph - -  
8:30 PM 57.2 °F - 17.6 °F 21% 30.12 in 6.2 mi East 8.1 mph - N/A   Unknown
9:00 PM 56 °F - 19 °F 13% 30.11 in - ESE 5.8 mph - -   Clear
9:00 PM 55.4 °F - 19.4 °F 25% 30.12 in 6.2 mi ESE 5.8 mph - N/A   Unknown
9:30 PM 55 °F - 19 °F 13% 30.11 in - East 6.9 mph - -  
9:30 PM 55.4 °F - 19.4 °F 25% 30.12 in 6.2 mi East 6.9 mph - N/A   Unknown
10:30 PM 53.6 °F - 19.4 °F 26% 30.12 in 6.2 mi East 5.8 mph - N/A   Unknown
11:00 PM 50.0 °F - 17.6 °F 28% 30.12 in 6.2 mi ENE 6.9 mph - N/A   Unknown
11:30 PM 46 °F - 15 °F 17% 30.11 in - Calm Calm - -  
11:30 PM 46.4 °F - 15.8 °F 29% 30.12 in 6.2 mi Calm Calm - N/A   Unknown